[[{"header":{"parameterUnit":"m.s-1","parameterCategory":1,"la1":30.2991,"la2":30.254,"lo1":-89.0895,"lo2":-89.0444,"dy":0.0017,"dx":0.0017,"nx":28,"ny":28,"refTime":"2024-06-12T21:00:00:Z","depth":0,"parameterNumber":2,"parameterNumberName":"U-component_of_WINDS"},"data":[0,0,0,0,0,0,0,0,0,0,0,0,0,0,0,0,0,0,0,0,0,0,0,0,0,0,0,0,0,0,0,0,0,0,0,0,0,0,0,0,0,0,0,0,0,0,0,0,0,0,0,0,0,0,0,0,0,0,-1.8438,-1.8438,0,-1.8422,-1.8422,-1.8422,-1.8346,-1.8345,-1.8343,-1.8341,-1.8327,-1.8328,-1.8329,0,0,0,0,0,0,0,0,0,0,0,0,0,-1.8406,-1.8407,-1.8438,-1.8438,-1.8438,-1.8422,-1.8422,-1.8421,-1.8347,-1.8345,-1.8342,-1.834,-1.8326,-1.8328,-1.8329,0,0,0,0,0,0,0,0,0,0,0,0,0,-1.8408,-1.8407,-1.8438,-1.8398,-1.8395,-1.8422,-1.8422,-1.8421,-1.8347,-1.8344,-1.8342,-1.8339,-1.8326,-1.8328,-1.833,-1.8395,0,0,-1.8335,-1.8336,0,0,0,0,0,0,0,0,-1.8408,-1.8409,-1.8404,-1.8401,-1.8397,-1.8383,-1.8405,-1.8413,-1.8348,-1.8365,-1.8341,-1.8338,-1.8348,-1.8348,-1.8351,-1.8394,-1.8393,-1.8336,-1.8337,-1.8338,-1.8338,0,0,0,0,0,0,0,-1.8408,-1.8409,-1.8432,-1.8404,-1.84,-1.8382,-1.8379,-1.8406,-1.8372,-1.8364,-1.8358,-1.8357,-1.8345,-1.8349,-1.835,-1.8393,-1.8336,-1.8337,-1.8338,-1.8339,-1.849,-1.8492,0,0,0,0,0,0,-1.8413,-1.841,-1.8432,-1.8431,-1.8396,-1.8385,-1.8382,-1.839,-1.8371,-1.8366,-1.8359,-1.8354,-1.8347,-1.8348,-1.8349,-1.8425,-1.8338,-1.8339,-1.834,-1.8487,-1.849,-1.8493,0,0,0,0,0,0,-1.8413,-1.8416,-1.8433,-1.8419,-1.842,-1.8388,-1.8399,-1.8392,-1.8395,-1.8368,-1.8362,-1.8369,-1.8345,-1.8346,-1.8384,-1.8423,-1.834,-1.8342,-1.8483,-1.8488,-1.8492,-1.8577,0,0,0,0,0,0,-1.8412,-1.8416,-1.844,-1.842,-1.8421,-1.8468,-1.8401,-1.8393,-1.8398,-1.8391,-1.8376,-1.8371,-1.8343,-1.8381,-1.8386,-1.8424,-1.8343,-1.848,-1.8485,-1.849,-1.857,-1.8583,-1.8595,0,0,0,0,0,-1.8411,-1.8465,-1.8442,-1.8445,-1.845,-1.847,-1.8471,-1.8437,-1.8402,-1.8426,-1.8409,-1.8371,-1.8418,-1.8386,-1.839,-1.843,-1.8477,-1.8484,-1.849,-1.8565,-1.8581,-1.8594,0,0,0,0,0,0,-1.8491,-1.8461,-1.8435,-1.8484,-1.848,-1.8457,-1.8487,-1.8455,-1.8461,-1.8454,-1.8413,-1.841,-1.8454,-1.8445,-1.841,-1.8492,-1.8441,-1.8449,-1.8497,-1.8512,-1.8523,-1.8526,-1.8345,0,0,0,0,0,-1.8514,-1.8532,-1.8505,-1.8551,-1.855,-1.8519,-1.8527,-1.8501,-1.8496,-1.8494,-1.8479,-1.8476,-1.8489,-1.85,-1.8511,-1.8568,-1.8564,-1.8597,-1.861,-1.862,-1.8627,-1.8658,-1.8673,-1.8514,-1.8514,-1.8514,0,0,-1.8563,-1.8549,-1.8563,-1.8567,-1.8561,-1.8581,-1.8518,-1.8543,-1.8558,-1.8498,-1.8532,-1.8521,-1.8515,-1.8563,-1.8583,-1.8557,-1.867,-1.8628,-1.8636,-1.8638,-1.8666,-1.8681,-1.8695,-1.8519,-1.8518,-1.8517,0,0,-1.8662,-1.8652,-1.869,-1.8685,-1.8676,-1.8655,-1.8664,-1.8646,-1.8636,-1.867,-1.8626,-1.8643,-1.8667,-1.8665,-1.8667,-1.8765,-1.8731,-1.8769,-1.8834,-1.8864,-1.8877,-1.8888,-1.8924,-1.8938,-1.8777,-1.8777,-1.8777,0,-1.8723,-1.8752,-1.8713,-1.8741,-1.8744,-1.869,-1.8728,-1.8725,-1.8721,-1.8725,-1.8695,-1.8725,-1.8717,-1.8764,-1.8788,-1.8791,-1.8801,-1.8772,-1.8878,-1.8888,-1.8898,-1.8933,-1.8946,-1.8782,-1.8781,-1.8781,-1.878,0,-1.8829,-1.8849,-1.8881,-1.8878,-1.8884,-1.8917,-1.8884,-1.8896,-1.887,-1.8852,-1.8888,-1.8875,-1.8884,-1.8892,-1.8867,-1.8937,-1.8921,-1.8885,-1.8833,-1.8919,-1.8951,-1.8963,-1.8789,-1.8787,-1.8786,-1.8784,0,0,-1.8979,-1.8954,-1.8966,-1.8965,-1.8951,-1.8966,-1.8996,-1.9004,-1.9016,-1.9014,-1.904,-1.9061,-1.9028,-1.9031,-1.9004,-1.9031,-1.9111,-1.8992,-1.8991,-1.9016,-1.9188,-1.9217,-1.9233,-1.9087,-1.909,-1.9092,-1.919,0,-1.9075,-1.9126,-1.9092,-1.9148,-1.9167,-1.9115,-1.9142,-1.9137,-1.9121,-1.9135,-1.9117,-1.9134,-1.9088,-1.9089,-1.9113,-1.9096,-1.9145,-1.9088,-1.9112,-1.9114,-1.9118,-1.9249,-1.9279,-1.9372,-1.9202,-1.9204,-1.9205,0,-1.9195,-1.9198,-1.9257,-1.9239,-1.9246,-1.9271,-1.9275,-1.9289,-1.9282,-1.9268,-1.9271,-1.9238,-1.9267,-1.9215,-1.9255,-1.9218,-1.9225,-1.9218,-1.9221,-1.9224,-1.9166,-1.9258,-1.9401,-1.9416,-1.9224,-1.9222,-1.9221,0,-1.9301,-1.932,-1.9358,-1.9358,-1.9338,-1.9357,-1.9349,-1.934,-1.9346,-1.935,-1.9354,-1.9362,-1.9366,-1.9373,-1.9343,-1.9307,-1.9389,-1.9333,-1.938,-1.9381,-1.9401,-1.9401,-1.955,-1.9403,-1.9402,-1.9402,-1.9402,0,-1.9413,-1.9452,-1.9405,-1.9429,-1.947,-1.9431,-1.9473,-1.946,-1.9452,-1.9473,-1.9427,-1.9448,-1.9406,-1.9422,-1.9399,-1.9437,-1.9439,-1.943,-1.9424,-1.9435,-1.9437,-1.9442,-1.9435,-1.9406,-1.9405,-1.9404,-1.9404,0,-1.954,-1.9511,-1.9549,-1.9526,-1.9522,-1.9553,-1.9535,-1.9556,-1.9536,-1.9563,-1.9567,-1.9537,-1.9554,-1.9524,-1.9537,-1.9521,-1.9575,-1.9558,-1.9578,-1.9574,-1.9623,-1.9619,-1.9782,-1.9802,-1.964,-1.9641,-1.9643,0,-1.9615,-1.9643,-1.9624,-1.9634,-1.9629,-1.9646,-1.9653,-1.9615,-1.9624,-1.9618,-1.964,-1.9653,-1.9662,-1.9691,-1.9671,-1.9681,-1.9665,-1.9721,-1.9666,-1.9678,-1.9668,-1.9668,-1.9672,-1.9734,-1.9735,-1.9737,-1.9738,0,-1.9751,-1.9735,-1.9746,-1.9752,-1.9761,-1.9764,-1.9764,-1.9775,-1.9735,-1.9747,-1.9764,-1.977,-1.9784,-1.9798,-1.9803,-1.9796,-1.9762,-1.9755,-1.9767,-1.9781,-1.9792,-1.9788,-1.9611,-1.9752,-1.9751,-1.975,-1.9749,-1.9749,-1.9856,-1.9879,-1.9869,-1.9883,-1.9878,-1.9879,-1.9898,-1.9881,-1.9894,-1.9901,-1.9878,-1.99,-1.9893,-1.9896,-1.9893,-1.991,-1.9886,-1.9902,-1.9907,-1.9912,-1.9921,-1.9787,-1.9911,-1.991,-1.991,-1.991,-1.9909,0,-1.9991,-1.9982,-1.9995,-1.9996,-2.0008,-1.9972,-1.997,-1.9982,-2.0002,-1.9998,-2.0007,-2.0027,-2.004,-2.002,-2.0031,-2.0049,-2.0033,-2.0053,-2.0052,-2.0052,-1.9941,-1.9931,-2.0065,-2.0065,-2.0065,-2.0065,-2.0065,-2.0065,-2.0064,-2.0101,-2.0084,-2.0119,-2.0109,-2.0131,-2.0133,-2.0134,-2.013,-2.0154,-2.0165,-2.0151,-2.0141,-2.015,-2.0161,-2.0155,-2.0162,-2.0188,-2.0177,-2.0074,-2.0059,-2.0045,-2.0035,-2.0189,-2.0189,-2.0286,-2.0287,-2.0287]},{"header":{"parameterUnit":"m.s-1","parameterCategory":1,"la1":30.2991,"la2":30.254,"lo1":-89.0895,"lo2":-89.0444,"dy":0.0017,"dx":0.0017,"nx":28,"ny":28,"refTime":"2024-06-12T21:00:00:Z","depth":0,"parameterNumber":3,"parameterNumberName":"V-component_of_WINDS"},"data":[0,0,0,0,0,0,0,0,0,0,0,0,0,0,0,0,0,0,0,0,0,0,0,0,0,0,0,0,0,0,0,0,0,0,0,0,0,0,0,0,0,0,0,0,0,0,0,0,0,0,0,0,0,0,0,0,0,0,-2.15,-2.15,0,-2.1503,-2.1503,-2.1503,-2.1479,-2.1478,-2.1478,-2.1477,-2.148,-2.1481,-2.1482,0,0,0,0,0,0,0,0,0,0,0,0,0,-2.1471,-2.1472,-2.15,-2.15,-2.15,-2.1503,-2.1503,-2.1503,-2.1479,-2.1478,-2.1477,-2.1477,-2.148,-2.1481,-2.1482,0,0,0,0,0,0,0,0,0,0,0,0,0,-2.148,-2.1472,-2.15,-2.1488,-2.1487,-2.1503,-2.1503,-2.1503,-2.1479,-2.1478,-2.1477,-2.1476,-2.148,-2.1481,-2.1482,-2.1509,0,0,-2.1485,-2.1486,0,0,0,0,0,0,0,0,-2.148,-2.1481,-2.149,-2.1489,-2.1488,-2.149,-2.1494,-2.1505,-2.148,-2.1482,-2.1477,-2.1476,-2.1484,-2.1485,-2.1488,-2.1509,-2.1509,-2.1485,-2.1486,-2.1486,-2.1487,0,0,0,0,0,0,0,-2.1479,-2.1481,-2.1501,-2.149,-2.1489,-2.1482,-2.1483,-2.1496,-2.1489,-2.1482,-2.148,-2.1481,-2.1483,-2.1487,-2.1488,-2.1509,-2.1485,-2.1486,-2.1487,-2.1487,-2.1553,-2.1554,0,0,0,0,0,0,-2.148,-2.148,-2.1501,-2.1501,-2.1481,-2.1484,-2.1484,-2.149,-2.1489,-2.1487,-2.1482,-2.148,-2.1485,-2.1486,-2.1488,-2.1519,-2.1486,-2.1487,-2.1488,-2.1552,-2.1553,-2.1555,0,0,0,0,0,0,-2.1479,-2.1482,-2.1501,-2.149,-2.1492,-2.1485,-2.1492,-2.1491,-2.1494,-2.1489,-2.1487,-2.1487,-2.1485,-2.1486,-2.1504,-2.1519,-2.1488,-2.1489,-2.1551,-2.1552,-2.1554,-2.1583,0,0,0,0,0,0,-2.1479,-2.1482,-2.1492,-2.1491,-2.1493,-2.1517,-2.1493,-2.1491,-2.1496,-2.1493,-2.1493,-2.1492,-2.1484,-2.1502,-2.1505,-2.152,-2.149,-2.1549,-2.1551,-2.1553,-2.1581,-2.1586,-2.159,0,0,0,0,0,-2.1478,-2.15,-2.1493,-2.1496,-2.1506,-2.1518,-2.1519,-2.151,-2.1497,-2.1508,-2.1504,-2.1492,-2.1517,-2.1504,-2.1507,-2.1523,-2.1548,-2.1551,-2.1553,-2.1579,-2.1585,-2.159,0,0,0,0,0,0,-2.1504,-2.15,-2.1492,-2.1515,-2.1517,-2.1514,-2.1527,-2.1517,-2.1523,-2.152,-2.1508,-2.1508,-2.1528,-2.1527,-2.1513,-2.1549,-2.153,-2.1534,-2.1549,-2.1554,-2.1559,-2.1559,-2.1491,0,0,0,0,0,-2.1513,-2.1523,-2.1519,-2.1539,-2.1541,-2.1534,-2.1539,-2.1532,-2.1533,-2.1534,-2.1532,-2.1534,-2.1542,-2.1548,-2.1556,-2.158,-2.158,-2.1592,-2.1597,-2.1601,-2.1603,-2.1616,-2.1622,-2.1563,-2.1563,-2.1563,0,0,-2.153,-2.1529,-2.1537,-2.1545,-2.1546,-2.1557,-2.1535,-2.1547,-2.1555,-2.1536,-2.1553,-2.1551,-2.1553,-2.1574,-2.1583,-2.1574,-2.162,-2.1604,-2.1607,-2.1608,-2.1619,-2.1625,-2.163,-2.1564,-2.1564,-2.1564,0,0,-2.1568,-2.1569,-2.1586,-2.1587,-2.1589,-2.1583,-2.1588,-2.1586,-2.1584,-2.1601,-2.1587,-2.1596,-2.1611,-2.1612,-2.1615,-2.1653,-2.1642,-2.1656,-2.1679,-2.1692,-2.1696,-2.1701,-2.1714,-2.1719,-2.1659,-2.1659,-2.1659,0,-2.159,-2.1606,-2.1596,-2.1609,-2.1613,-2.1596,-2.1613,-2.1615,-2.1619,-2.1622,-2.1611,-2.1629,-2.1629,-2.165,-2.166,-2.1663,-2.1667,-2.1656,-2.1697,-2.1701,-2.1704,-2.1717,-2.1722,-2.166,-2.166,-2.166,-2.166,0,-2.1633,-2.1644,-2.1658,-2.1662,-2.1667,-2.1683,-2.1674,-2.1681,-2.1673,-2.1669,-2.1686,-2.1685,-2.1692,-2.1696,-2.1689,-2.1717,-2.1711,-2.1699,-2.168,-2.1712,-2.1724,-2.1729,-2.1663,-2.1662,-2.1662,-2.1661,0,0,-2.1688,-2.1686,-2.1691,-2.1693,-2.1693,-2.1702,-2.1716,-2.1723,-2.1729,-2.1732,-2.1743,-2.1756,-2.1745,-2.1748,-2.174,-2.1751,-2.1781,-2.1738,-2.1737,-2.1746,-2.1812,-2.1822,-2.1828,-2.1774,-2.1775,-2.1775,-2.1812,0,-2.1725,-2.1749,-2.174,-2.1765,-2.1776,-2.1759,-2.1772,-2.1773,-2.177,-2.1778,-2.1774,-2.1783,-2.1767,-2.1769,-2.1779,-2.1776,-2.1795,-2.1773,-2.1785,-2.1785,-2.1785,-2.1834,-2.1844,-2.1878,-2.1817,-2.1817,-2.1818,0,-2.1772,-2.1777,-2.1803,-2.1801,-2.1805,-2.1817,-2.1822,-2.183,-2.1831,-2.1827,-2.1831,-2.1821,-2.1834,-2.1816,-2.1834,-2.182,-2.1824,-2.1823,-2.1824,-2.1825,-2.1804,-2.1836,-2.1889,-2.1895,-2.1825,-2.1825,-2.1824,0,-2.1809,-2.1823,-2.184,-2.1842,-2.184,-2.1849,-2.1848,-2.1848,-2.1853,-2.1858,-2.186,-2.1866,-2.187,-2.1875,-2.1866,-2.1853,-2.1886,-2.1867,-2.1884,-2.1884,-2.1892,-2.1892,-2.1947,-2.1894,-2.1894,-2.1894,-2.1894,0,-2.1852,-2.1869,-2.1857,-2.1868,-2.1886,-2.1875,-2.1893,-2.1891,-2.1891,-2.1901,-2.1887,-2.1896,-2.1885,-2.1893,-2.1887,-2.1903,-2.1905,-2.1902,-2.19,-2.1904,-2.1904,-2.1907,-2.1904,-2.1896,-2.1895,-2.1895,-2.1895,0,-2.1897,-2.189,-2.1908,-2.1905,-2.1904,-2.1918,-2.1915,-2.1925,-2.192,-2.1933,-2.1935,-2.1928,-2.1937,-2.1929,-2.1938,-2.1933,-2.1955,-2.195,-2.1955,-2.1954,-2.1971,-2.197,-2.203,-2.2038,-2.198,-2.1981,-2.1981,0,-2.1925,-2.1938,-2.1936,-2.1941,-2.1942,-2.1951,-2.1956,-2.1945,-2.195,-2.1952,-2.1962,-2.197,-2.1976,-2.1991,-2.1986,-2.1993,-2.1988,-2.2008,-2.1988,-2.1991,-2.1988,-2.1988,-2.1989,-2.2012,-2.2013,-2.2014,-2.2014,0,-2.1975,-2.1971,-2.1978,-2.1984,-2.199,-2.1994,-2.1997,-2.2002,-2.1991,-2.1998,-2.2007,-2.2012,-2.202,-2.2028,-2.2034,-2.2033,-2.2022,-2.202,-2.2025,-2.2028,-2.2031,-2.203,-2.1966,-2.2019,-2.2018,-2.2018,-2.2018,-2.2018,-2.2013,-2.2023,-2.2023,-2.2032,-2.2033,-2.2036,-2.2045,-2.2041,-2.2048,-2.2055,-2.2048,-2.2059,-2.206,-2.2065,-2.2066,-2.2074,-2.2066,-2.2072,-2.2074,-2.2075,-2.2078,-2.2029,-2.2075,-2.2075,-2.2075,-2.2075,-2.2075,0,-2.2063,-2.2062,-2.2069,-2.2074,-2.208,-2.2069,-2.2072,-2.2078,-2.2088,-2.2089,-2.2095,-2.2105,-2.2113,-2.2109,-2.2115,-2.2123,-2.2118,-2.2125,-2.2124,-2.2124,-2.2085,-2.2081,-2.2129,-2.2129,-2.2129,-2.2129,-2.2129,-2.2129,-2.2089,-2.2106,-2.2101,-2.2118,-2.2117,-2.2128,-2.213,-2.2133,-2.2134,-2.2146,-2.2152,-2.215,-2.2149,-2.2155,-2.2161,-2.216,-2.2163,-2.2172,-2.2169,-2.2133,-2.2127,-2.2122,-2.2118,-2.2173,-2.2173,-2.2207,-2.2208,-2.2208]}]]